Regional Weather Roundup
Issued by NWS

Home | Current Version | Previous Version | Graphics & Text | Print | Product List | Glossary On
Versions: 1 2 3 4 5 6 7 8 9 10 11 12 13 14 15 16 17 18 19 20 21 22 23 24 25 26 27 28 29 30 31 32 33 34 35 36 37 38 39 40 41 42 43 44 45 46 47 48 49 50
654
ASUS45 KBOU 290207
RWRCO

WEATHER ROUNDUP FOR COLORADO
NATIONAL WEATHER SERVICE DENVER/BOULDER CO
800 PM MDT FRI APR 28 2017

NOTE: "FAIR" INDICATES FEW OR NO CLOUDS BELOW 12000 FEET WITH NO
SIGNIFICANT WEATHER AND/OR OBSTRUCTIONS TO VISIBILITY.

COZ001>005-013-030-031-290300-
...NORTHWEST COLORADO...

CITY           SKY/WX    TMP DP  RH WIND       PRES   REMARKS
CRAIG          LGT SNOW  34  30  85 S7        29.86R FOG     WCI  28
HAYDEN         FAIR      32  25  74 CALM      29.85R
MEEKER         FAIR      32  31  96 SW3       29.85R
MOUNT WERNER   NOT AVBL
STEAMBOAT SPGS CLOUDY    30  29  94 CALM      29.86R
WALDEN           N/A     30  18  59 E15G21    29.89R WCI  19
$$

COZ006>008-011-290300-
...WEST CENTRAL VALLEYS...

CITY           SKY/WX    TMP DP  RH WIND       PRES   REMARKS
GRAND JUNCTION FAIR      46  22  38 N10       29.78R
MONTROSE       FAIR      41  22  46 SE12      29.79S
EAGLE          MOCLDY    41  18  39 SE6       29.82R
RIFLE          FAIR      42  25  50 NW10      29.81R
DELTA          FAIR      47  18  31 N7        29.77S
NUCLA          FAIR      37  21  52 CALM      29.83S
$$

COZ017>023-064>068-290300-
...SOUTHWEST COLORADO...

CITY           SKY/WX    TMP DP  RH WIND       PRES   REMARKS
DURANGO        FAIR      35  25  66 E5        29.76R WCI  31
CORTEZ         MOCLDY    38  21  50 N3        29.78S
PAGOSA SPRINGS FAIR      35  21  58 SW6       29.80R WCI  30
TELLURIDE      FLURRIES  24  22  93 W5        29.80R WCI  18
WOLF CREEK PAS NOT AVBL
$$

COZ009-010-012-014-032>034-037-058>063-290300-
...CENTRAL COLORADO...

CITY           SKY/WX    TMP DP  RH WIND       PRES   REMARKS
ASPEN          CLOUDY    34  21  59 CALM      29.79R
BUENA VISTA    LGT SNOW  29  27  92 NW5       29.83R WCI  24
COPPER MTN     SNOW      21  16  79 MISG      29.83R VSB 1/4
BERTHOUD PASS  HVY SNOW  10   0  61 MISG      29.85R VSB<1/4
COTTONWOOD PAS LGT SNOW  28  27  93 CALM      29.83R VSB 1
GUNNISON       FAIR      35  17  47 SW10      29.76R WCI  27
KREMMLING      LGT SNOW  37  30  75 NW14      29.86R
LEADVILLE      SNOW      21  18  88 NW6       29.81R VSB 1/2 WCI  13
MONARCH PASS   CLOUDY    18  14  86 E28       29.87F WCI  -1
SALIDA         CLOUDY    33  32  95 CALM      29.90R
SUNLIGHT       FAIR      19  12  73 CALM      29.86S
WILKERSON PASS LGT SNOW  19  18  93 E9G20     29.86R VSB 3/4 WCI   9
$$

COZ069>075-290300-
...SAN LUIS VALLEY/SANGRE DE CRISTO MOUNTAINS...

CITY           SKY/WX    TMP DP  RH WIND       PRES   REMARKS
ALAMOSA        FAIR      34  27  75 CALM      29.76R
LA VETA PASS   FAIR      27  19  74 CALM      29.89S
SAGUACHE       FAIR      32  21  64 N6        29.76R WCI  26
$$

COZ035-036-038>040-290300-
...NORTHERN COLORADO FRONT RANGE...

CITY           SKY/WX    TMP DP  RH WIND       PRES   REMARKS
DENVER INTL AP FOG       32  30  92 NE21      29.95R VSB 1/4 WCI  20
DMNS CITY PARK   N/A     33  32  99 NE12G29   29.98R WCI  24
AURORA         LGT SNOW  32  32  99 NE20      29.95R FOG     WCI  20
FRONT RANGE AP NOT AVBL
ERIE MUNI ARPT LGT SNOW  33  32  96 NE12G20   30.00R WCI  24
BOULDER MUN AP LGT SNOW  32  32 100 N12       30.00R WCI  23
CENTENNIAL     SNOW      32  32 100 NE10      29.93R VSB 1/2 WCI  24
BROOMFIELD     LGT SNOW  32  32 100 N18G26    29.98R VSB 1   WCI  20
FORT COLLINS   FLURRIES  32  31  96 NE15      30.02R WCI  22
LONGMONT       LGT SNOW  35  32  90 NE13      30.04R WCI  26
$$

COZ041-046-047-076>085-087-088-290300-
...PIKES PEAK/PALMER DIVIDE AND SOUTHERN FOOTHILLS...

CITY           SKY/WX    TMP DP  RH WIND       PRES   REMARKS
COLO. SPRINGS  LGT RAIN  37  32  82 NE20G26   29.87R
A. F. ACADEMY  CLOUDY    32  32 100 NW9       29.88R WCI  24
SCHRIEVER AFB  SNOWSHWR  33  32  97 NE15G23   29.87  WCI  22
ELLICOTT       HVY SNOW N/A N/A N/A E25G31    29.85R
FALCON         CLOUDY    32  31  94 NE15G24   29.88R WCI  22
FORT CARSON    FRZ RAIN  34  32  93 NE14      29.87R FOG     WCI  24
LIMON          FOG       31  31 100 NE25      29.90R VSB 1   WCI  17
MONUMENT HILL  LGT SNOW  30  28  93 NE10      29.90R WCI  21
TRINIDAD       CLOUDY    42  32  67 NW26G37   29.74R
$$

COZ042>045-048>051-090-091-290300-
...NORTHEAST COLORADO...

CITY           SKY/WX    TMP DP  RH WIND       PRES   REMARKS
GREELEY ARPT   MIX PCPN  33  31  92 NE15G21   30.03R WCI  23
AKRON          CLOUDY    31  30  96 NE23      29.97R FOG     WCI  18
BURLINGTON     NOT AVBL
WRAY           NOT AVBL
STERLING       CLOUDY    34  32  93 NE10G17   30.01R WCI  26
HOLYOKE        CLOUDY    37  34  87 NE16G25   30.01R
FORT MORGAN    CLOUDY    32  31  96 NE21      30.01R WCI  20
$$

COZ086-089-092>099-290300-
...SOUTHEAST COLORADO...

CITY           SKY/WX    TMP DP  RH WIND       PRES   REMARKS
PUEBLO         RAIN      39  36  89 N22G32    29.83R FOG
LA JUNTA       CLOUDY    44  38  79 E31G38    29.79R
LAMAR          LGT RAIN  41  38  89 NE18G31   29.80R
SPRINGFIELD      N/A     44  42  93 E14       29.75F
$$




USA.gov is the U.S. government's official web portal to all federal, state and local government web resources and services.